This is the latest recevied weather packets stored in our database for station/object KE9DBJ-13. If no packets are shown the sender has not sent any weather packets the latest 10 day(s).
| Time | Temp. | Humidity | Pressure | Rain* | Wind** | Luminosity | Snow |
|---|---|---|---|---|---|---|---|
| 1777732803 | 11.67° C | 45% | 1018.5 hPa | 0 mm | - | - | - |
| 1777732203 | 11.67° C | 49% | 1018.5 hPa | 0 mm | - | - | - |
| 1777731603 | 10.56° C | 57% | 1018.5 hPa | 0 mm | - | - | - |
| 1777731002 | 9.44° C | 60% | 1018.6 hPa | 0 mm | - | - | - |
| 1777730402 | 9.44° C | 65% | 1018.7 hPa | 0 mm | - | - | - |
| 1777729802 | 8.33° C | 68% | 1018.9 hPa | 0 mm | - | - | - |
| 1777729202 | 8.33° C | 69% | 1018.7 hPa | 0 mm | - | - | - |
| 1777728602 | 8.33° C | 77% | 1018.7 hPa | 0 mm | - | - | - |
| 1777728002 | 7.22° C | 79% | 1018.8 hPa | 0 mm | - | - | - |
| 1777727402 | 7.22° C | 87% | 1018.8 hPa | 0 mm | - | - | - |
| 1777726802 | 6.67° C | 91% | 1018.9 hPa | 0 mm | - | - | - |
| 1777726202 | 5° C | 97% | 1019 hPa | 0 mm | - | - | - |
| 1777725603 | 3.89° C | 99% | 1019 hPa | 0 mm | - | - | - |
| 1777725003 | 3.89° C | 99% | 1018.9 hPa | 0 mm | - | - | - |
| 1777724403 | 3.33° C | 99% | 1018.8 hPa | 0 mm | - | - | - |
| 1777723803 | 3.33° C | 99% | 1018.7 hPa | 0 mm | - | - | - |
| 1777723203 | 2.78° C | 99% | 1018.6 hPa | 0 mm | - | - | - |
| 1777722603 | 2.78° C | 99% | 1018.2 hPa | 0 mm | - | - | - |
| 1777722003 | 2.22° C | 99% | 1018.1 hPa | 0 mm | - | - | - |
| 1777721402 | 2.22° C | 99% | 1018.1 hPa | 0 mm | - | - | - |
| 1777720802 | 2.22° C | 99% | 1018.2 hPa | 0 mm | - | - | - |
| 1777720202 | 2.22° C | 99% | 1018.3 hPa | 0 mm | - | - | - |
| 1777719602 | 2.22° C | 99% | 1018.3 hPa | 0 mm | - | - | - |
| 1777719002 | 2.22° C | 99% | 1018.6 hPa | 0 mm | - | - | - |
| 1777718402 | 2.22° C | 99% | 1018.5 hPa | 0 mm | - | - | - |
* Rain latest hour (hover to see other rain measurements)
** Current wind speed in m/s (hover to see current wind gust speed)